Regional Weather Roundup
Issued by NWS Newport/Morehead, NC

Current Version | Previous Version | Text Only | Print | Product List | Glossary Off
Versions: 1 2 3 4 5 6 7 8 9 10 11 12 13 14 15 16 17 18 19 20 21 22 23 24 25 26 27 28 29 30 31 32 33 34 35 36 37 38 39 40 41 42 43 44 45 46 47 48 49 50
000 ASUS42 KMHX 121425 RWRMHX WEATHER ROUNDUP FOR EASTERN NORTH CAROLINA NATIONAL WEATHER SERVICE NEWPORT/MOREHEAD CITY NC 900 AM EST TUE DEC 12 2017 NOTE: "FAIR" INDICATES FEW OR NO CLOUDS BELOW 12,000 FEET WITH NO SIGNIFICANT WEATHER AND/OR OBSTRUCTIONS TO VISIBILITY NCZ015>017-031-032-045>047-102-103-121500- NORTH COAST CITY SKY/WX TMP DP RH WIND PRES REMARKS EDENTON SUNNY 47 40 76 SW9 29.72F ELIZABETH CITY MOSUNNY 48 42 80 SW14 29.70F KITTY HAWK SUNNY 47 40 78 SW6 29.70F MANTEO MOSUNNY 48 41 77 SW16 29.72F $$ NCZ045>047-081-094-103-104-121500- CENTRAL COAST CITY SKY/WX TMP DP RH WIND PRES REMARKS FRISCO SUNNY 60 46 59 W17G28 29.76F $$ NCZ095-097-098-100-101-121500- SOUTHERN COAST CITY SKY/WX TMP DP RH WIND PRES REMARKS BEAUFORT SUNNY 58 47 66 SW20G29 29.76F CEDAR ISLAND NOT AVBL JACKSONVILLE MOSUNNY 51 39 63 SW10 29.77F PINEY ISLAND N/A N/A N/A N/A S13G20 29.75F WILMINGTON SUNNY 54 41 61 SW12 29.78F $$ NCZ011>013-027>030-043-044-078>080-089-090>093-098-121500- COASTAL PLAIN CITY SKY/WX TMP DP RH WIND PRES REMARKS AHOSKIE PTSUNNY 44 37 74 SW5 29.70S CLINTON MOSUNNY 46 39 77 SW6 29.75F ELIZABETHTOWN NOT AVBL GOLDSBORO MOSUNNY 47 37 69 SW12 29.72F GREENVILLE MOSUNNY 48 37 66 SW15 29.75F HAVELOCK SUNNY 54 43 66 SW17 29.76F KENANSVILLE MOSUNNY 48 39 71 SW8 29.75F KINSTON SUNNY 48 37 66 SW12G18 29.75F NEW BERN SUNNY 46 40 79 SW9 29.77F RICHLANDS SUNNY 49 40 71 SW12 29.76F ROCKY MOUNT MOSUNNY 43 37 79 SW9 29.72F WASHINGTON SUNNY 46 38 72 SW12 29.73F WHITEVILLE MOSUNNY 48 38 68 SW8 29.76F $$ AMZ130-135-150-152-154-156-158-170-250-252-270-ANZ085-086-088-633-658-670-121500- MARINE OBSERVATIONS STATION/POSITION TIME TEMP WIND PRES WAVE SWELL AIR SEA DIR/SP/G HT/PER HT/PER (UTC) (F) (DEG/KT/KT) (MB) (FT/S) (FT/S) CHESAPEAKE LIGHT NOT AVBL 64 E VA BEACH 1350 57 61 220/ 25/ 27 1005.3 5/ 5 2/10 DUCK 1400 49 55 210/ 18/ 22 1004.8 2 E DUCK 1330 54 N/A 2/10 OREGON INLET 1400 51 45 210/ 15/ 18 1006.4 13E OREGON INLT 1348 57 N/A 3/ 4 2/ 9 HATTERAS CG 1400 60 55 230/ 19/ 24 1007.1 DIAMOND BUOY 1410 64 74 230/ 25/ 31 1007.8 CAPE LOOKOUT 1400 220/ 15/ 19 1008.5 BEAUFORT LAB 1400 58 52 210/ 12/ 19 1007.7 30 SE NEW RVR IN 1408 62 65 220/ 19/ 27 1008.3 30 SE NEW RVR IN 1330 65 N/A 7/ 6 27 SE WRIGHTSVLE 1408 61 65 230/ 23/ 35 1009.3 5 SE WRIGHTSVLE 1408 57 58 240/ 16/ 19 1008.6 225 S CAPE HAT 1350 69 75 230/ 19/ 25 1012.8 6/ 6 2/ 9 41 SE CHARLESTON 1410 63 74 240/ 19/ 23 1010.8 $$

USA.gov is the U.S. government's official web portal to all federal, state and local government web resources and services.